Location: Unspecified
(0.0000°N, 0.0000°E)
Time: 18:58:46
(UTC+00:00)

Kosmos-2213 - Pass Details

Date: 23 November 2025
Orbit: 1410 x 1414 km, 82.6° (Epoch: 04 December)

Event Time Altitude Azimuth Distance (km) Brightness Sun altitude
Rises 05:09:34 0° 222° (SW) 4,484 9.7 -8.6°
Reaches altitude 10° 05:14:19 10° 246° (WSW) 3,505 9.0 -7.5°
Maximum altitude 05:18:03 14° 273° (W) 3,221 8.6 -6.6°
Drops below altitude 10° 05:21:48 10° 300° (WNW) 3,501 8.7 -5.8°
Sets 05:26:37 0° 325° (NW) 4,475 9.4 -4.6°
